GFSGBSN_850_spd_132.txt.gz
Wind_Speed
21 20 20 19 18 17 16 15 15 15 15 15 14 14 14 13 13 11 10 10 10 11 13 13 12 10 8 3 4 2 8 4 8 10 12 10 6 3 2 3 8 4 10 14 13 14 11
20 20 19 20 20 19 19 18 17 16 15 15 15 14 14 15 15 13 11 9 9 11 13 12 11 9 5 3 1 6 6 5 8 11 11 11 4 11 14 9 7 12 16 10 8 10 12
21 22 22 22 21 21 20 19 19 19 18 17 16 16 15 15 15 14 12 10 10 12 12 10 8 6 6 3 3 6 4 6 4 7 7 4 13 14 11 3 8 15 12 9 4 3 4
21 22 22 22 22 21 21 21 20 19 19 19 18 17 17 17 16 15 12 10 10 12 9 6 5 4 6 2 5 4 2 4 2 4 9 9 12 11 1 6 3 3 3 4 5 7 4
20 20 20 19 19 20 20 20 20 20 20 20 20 19 18 17 17 15 11 11 10 7 5 4 5 5 7 5 10 10 8 7 4 3 7 7 11 3 4 3 3 2 5 3 5 9 2
18 19 19 20 20 20 20 20 21 21 22 22 21 20 20 18 18 15 9 9 8 6 5 7 9 8 8 5 6 12 11 12 10 11 8 4 2 3 3 4 4 4 4 6 8 8 9
19 18 18 19 20 21 21 22 21 21 21 21 23 22 21 18 17 15 6 6 9 2 8 12 18 18 25 10 5 9 5 5 6 1 5 3 4 6 11 7 7 4 6 11 5 9 7
19 18 18 20 21 22 22 22 22 22 22 22 22 22 21 19 16 13 7 3 10 13 12 22 23 26 25 13 7 9 13 9 3 4 1 5 7 12 7 8 7 7 7 3 2 10 5
19 19 18 20 22 23 23 22 23 23 23 23 23 22 21 18 13 8 8 6 17 22 6 20 16 17 21 15 15 14 17 15 5 3 5 7 11 10 8 11 9 8 9 9 8 13 11
18 19 19 20 23 24 24 23 22 24 24 24 24 23 22 19 8 7 7 8 11 13 4 7 4 8 16 12 5 14 23 13 4 11 6 7 18 11 9 9 6 6 3 14 14 11 5
19 20 21 22 23 24 23 22 22 23 24 25 25 24 22 20 17 13 9 6 5 2 3 5 7 6 16 11 6 12 23 15 7 9 1 10 7 5 8 7 4 6 3 8 6 5 4
19 20 21 22 24 25 24 23 23 23 24 26 26 25 24 21 19 11 8 6 6 5 6 4 10 7 8 8 9 19 13 13 6 3 4 9 14 5 8 2 2 3 6 8 5 3 2
21 21 22 23 24 25 25 23 23 24 26 28 28 26 26 25 18 8 6 5 4 3 5 6 7 7 9 7 4 7 6 4 5 2 4 7 5 4 4 2 5 7 7 4 4 3 6
21 23 23 23 23 24 24 23 23 24 27 31 30 29 27 22 15 11 5 4 4 5 6 2 2 6 9 9 7 7 6 4 5 3 2 3 7 6 3 6 6 3 8 6 5 4 6
22 23 23 22 23 23 24 23 23 23 26 33 32 31 25 11 13 14 9 3 8 5 4 7 6 6 5 6 8 7 10 8 8 10 7 5 6 2 7 5 9 2 1 7 5 1 2
22 21 21 19 21 22 23 22 22 22 25 30 30 31 13 0 11 19 4 5 5 0 8 5 2 3 5 6 8 8 10 8 6 10 9 6 3 2 5 5 0 9 5 4 3 2 2
22 17 18 18 20 21 21 20 21 22 24 26 24 15 17 16 15 9 3 6 6 11 16 7 7 7 7 8 9 8 9 4 8 7 8 3 4 6 4 3 8 1 1 3 5 5 4
18 21 16 17 18 19 18 18 19 21 22 22 11 4 7 13 4 3 3 5 8 16 25 9 6 8 7 7 8 6 2 3 7 6 4 2 6 1 5 5 3 7 9 6 5 5 2
18 15 17 16 16 16 14 14 16 19 22 24 18 7 4 10 2 3 6 7 12 14 13 5 7 12 11 9 3 5 7 2 14 5 5 0 2 3 9 7 7 5 3 2 3 3 5
16 13 12 13 14 14 13 13 14 16 18 19 7 4 7 4 8 2 6 6 7 15 12 13 10 15 11 6 3 5 6 3 14 12 12 8 3 6 6 6 2 5 8 3 5 3 4
11 10 11 12 12 14 12 12 13 14 14 13 3 3 7 4 7 7 3 4 10 11 10 14 6 7 12 5 3 5 4 6 7 12 5 5 5 5 6 6 2 4 7 7 3 5 5
9 10 9 12 11 12 12 12 12 12 11 5 5 5 8 11 12 7 3 4 8 13 6 5 12 22 16 6 9 9 8 5 5 2 4 2 2 4 2 4 4 3 6 6 5 4 5
9 9 10 10 12 11 11 11 12 11 10 3 3 7 4 6 6 4 3 7 16 10 10 14 19 16 9 6 14 21 21 23 16 10 5 7 5 3 2 3 3 3 3 2 3 6 2
10 11 12 12 12 12 11 11 13 12 9 7 4 5 4 4 2 3 13 20 8 5 7 20 23 7 9 28 8 8 14 16 20 5 14 7 6 3 3 4 2 7 3 4 6 3 5
11 12 11 11 11 12 12 11 11 12 10 8 3 2 4 4 6 12 10 10 14 13 9 18 15 26 33 19 4 5 5 5 2 9 7 6 5 3 4 4 3 1 1 2 2 2 3
14 13 13 14 15 14 13 12 11 11 11 9 3 4 6 5 5 3 9 14 4 4 5 6 30 27 10 2 2 4 3 6 4 6 4 6 6 5 3 5 5 7 4 6 4 3 1
15 16 16 16 17 17 15 12 11 10 11 10 4 7 5 6 15 6 2 6 8 4 2 8 14 16 17 3 3 2 2 4 5 8 5 4 3 6 3 3 4 4 9 7 2 6 8
14 15 16 16 17 16 13 12 11 10 10 11 5 10 8 8 29 26 16 14 12 7 3 9 10 5 6 4 3 2 2 3 4 3 7 6 5 3 3 3 4 10 4 4 5 6 9
12 13 13 14 14 14 13 11 11 10 9 8 10 9 13 13 18 21 26 27 30 22 9 4 3 4 4 2 4 4 2 3 4 3 3 2 5 5 6 6 4 6 2 8 11 14 10

GFSGBSN_850_spd_135.txt.gz
Wind_Speed
21 20 20 19 19 19 19 18 17 17 16 16 15 15 15 15 14 13 13 12 11 10 11 12 10 8 6 2 1 1 3 8 11 10 9 9 5 3 2 5 7 3 3 10 4 15 15
19 19 19 19 19 19 19 19 19 19 18 18 17 17 16 16 16 14 13 12 11 11 11 11 9 5 3 2 2 3 3 6 11 11 10 11 2 5 8 5 9 7 9 7 6 11 12
19 19 20 20 20 20 20 20 19 19 19 19 19 19 18 18 17 16 14 12 11 11 11 8 6 3 5 3 3 1 4 4 7 9 9 6 4 6 6 2 10 17 5 4 3 1 6
18 19 19 19 19 19 19 19 19 19 20 20 20 20 20 19 19 17 14 12 11 11 7 4 4 3 4 4 6 4 3 4 7 7 5 2 6 9 4 1 7 3 4 2 4 2 4
18 18 18 18 19 19 19 20 19 19 19 19 19 19 20 20 19 17 13 11 10 8 4 4 3 4 4 7 12 5 7 3 2 5 6 5 5 3 0 5 4 2 3 4 3 12 3
17 16 17 17 18 19 20 20 20 20 21 21 21 20 20 19 19 16 11 10 10 6 4 6 7 6 3 2 6 11 10 5 7 6 5 5 2 2 3 3 6 6 4 3 5 6 4
17 16 16 17 19 20 21 20 20 20 21 22 22 22 21 20 19 14 5 6 8 3 11 14 21 18 23 10 4 11 10 11 9 2 4 1 3 7 10 6 3 2 3 6 7 8 6
17 16 16 17 19 21 22 21 20 20 21 23 23 23 22 20 20 12 4 5 7 11 12 19 21 24 22 17 5 12 13 8 5 4 4 5 5 11 2 4 4 5 6 4 2 8 5
17 17 17 18 19 21 22 21 20 21 22 23 24 24 23 20 18 7 6 3 10 17 5 12 10 13 13 13 12 17 18 14 3 3 4 6 7 4 5 5 4 4 5 6 7 4 2
17 16 17 18 19 20 21 22 22 22 22 22 23 25 25 22 10 10 6 2 11 6 4 6 4 6 13 7 5 24 22 15 2 8 5 6 6 5 5 7 5 8 8 11 7 6 4
20 17 18 19 21 22 22 22 21 22 22 23 25 26 26 23 20 14 7 8 8 1 4 2 4 5 10 11 3 11 24 19 8 6 4 7 5 4 6 11 8 9 6 11 8 7 3
19 21 20 20 23 23 23 23 23 23 24 23 25 28 26 24 20 9 5 4 1 5 6 4 9 6 6 6 4 4 10 10 4 5 2 8 7 5 9 5 8 6 7 9 6 4 2
19 21 23 22 23 23 23 23 22 22 24 25 27 28 27 24 21 11 7 1 4 3 5 3 5 4 7 6 2 5 7 6 5 4 3 4 5 4 4 4 4 7 7 3 2 2 6
20 22 22 22 21 22 23 23 23 22 24 26 29 30 25 22 17 11 6 4 3 4 6 5 4 3 8 7 6 7 5 4 4 4 2 4 5 6 3 5 7 2 7 6 5 4 4
21 22 22 21 19 20 22 23 22 22 24 28 29 30 18 14 8 16 11 3 8 6 4 7 8 4 3 2 4 3 8 6 8 10 8 5 6 4 5 5 8 3 2 3 7 1 2
21 21 22 20 19 21 22 23 22 21 23 26 30 27 14 7 11 20 4 5 4 2 5 4 2 4 2 1 1 6 8 6 6 11 6 5 2 3 2 6 5 7 7 4 3 2 3
20 19 19 19 17 19 20 20 20 21 22 23 22 10 11 11 13 8 4 6 4 6 11 6 2 4 3 2 5 6 9 8 6 5 8 6 4 5 3 3 5 2 2 6 5 4 5
18 17 19 16 16 17 18 17 18 20 21 20 10 3 5 9 4 2 3 4 4 6 20 6 5 9 6 3 6 6 11 7 14 13 10 5 5 3 3 2 3 2 3 4 5 5 1
17 17 15 12 13 14 15 15 16 19 21 24 15 5 3 9 0 3 5 4 3 3 4 4 4 4 5 5 3 6 6 1 16 6 9 7 2 3 6 6 5 6 1 4 5 3 5
15 13 11 11 12 14 15 14 14 16 18 18 6 4 4 3 7 2 3 4 4 10 7 9 7 1 5 4 9 6 3 3 4 6 12 9 4 6 6 6 4 1 2 3 5 3 4
12 10 12 9 12 13 15 13 13 13 14 11 5 2 2 3 2 3 3 2 3 5 6 11 4 6 5 5 3 7 2 3 7 5 4 5 4 4 3 3 2 2 3 2 5 5 5
10 11 11 10 12 12 13 12 13 13 12 5 5 5 7 7 8 4 3 1 3 3 2 4 2 15 9 6 5 6 4 2 5 2 4 4 1 2 1 1 2 2 2 7 4 5 5
11 11 12 12 13 13 13 12 12 12 11 4 4 4 5 6 4 2 3 2 6 7 8 10 6 9 12 6 19 27 30 17 16 10 5 5 6 3 1 2 4 3 3 4 3 2 5
12 12 13 13 12 12 11 12 12 11 10 7 5 5 2 4 1 3 7 11 9 5 6 19 13 6 9 33 35 2 9 3 16 3 10 7 5 3 3 2 1 6 4 3 7 3 1
15 15 13 13 13 14 13 11 11 11 10 8 7 3 2 4 4 12 8 4 13 13 7 17 17 18 28 18 4 3 5 4 1 3 4 5 6 3 5 4 4 1 4 5 5 3 3
16 17 17 14 14 16 15 13 12 11 11 9 6 6 5 4 5 6 7 11 4 4 5 8 16 16 9 3 1 4 5 7 5 4 6 7 7 5 3 5 6 7 2 8 5 3 8
14 14 15 17 17 17 16 15 12 11 10 10 6 9 7 6 16 7 4 3 10 4 4 9 11 6 8 3 2 3 3 5 7 9 6 3 4 6 3 3 5 6 4 6 5 7 15
13 13 13 14 15 15 15 13 11 10 10 10 6 10 11 10 23 29 30 19 11 7 2 8 11 4 5 5 2 3 2 1 3 5 8 6 6 4 3 4 4 9 6 6 7 7 13
12 12 12 13 13 13 12 11 10 10 9 8 9 5 13 14 22 28 23 27 31 28 9 3 5 3 2 3 3 4 3 3 1 3 2 3 6 6 6 6 5 20 6 15 9 8 13

GFSGBSN_850_spd_138.txt.gz
Wind_Speed
18 18 19 18 18 18 18 18 17 17 17 17 17 16 16 16 15 15 14 13 10 9 10 10 9 7 4 2 1 1 1 11 13 11 10 11 9 4 2 2 7 3 1 6 2 15 10
17 17 17 18 18 18 18 18 18 18 18 18 18 18 17 17 16 15 14 13 11 10 10 10 8 5 3 2 3 0 2 9 12 11 12 13 5 2 3 3 5 7 6 4 4 9 7
17 18 18 19 19 20 20 20 19 19 19 19 19 19 18 18 18 17 15 13 9 9 9 8 5 3 5 4 3 0 4 5 10 11 12 12 3 2 3 2 2 10 5 2 3 7 4
17 16 17 17 18 19 20 20 20 20 20 20 20 20 20 19 19 16 14 12 9 8 5 3 3 2 4 7 5 3 4 5 7 9 8 5 4 6 3 7 5 4 4 2 4 8 4
16 15 16 17 18 19 20 19 19 19 20 21 21 21 22 21 20 18 14 9 8 4 2 2 3 2 2 6 7 6 6 4 5 5 7 4 5 2 2 5 3 3 2 4 1 10 3
16 15 15 16 17 19 20 20 20 20 21 22 22 22 22 22 22 19 12 8 7 2 3 3 6 2 3 4 9 9 8 8 2 1 3 4 2 3 3 4 5 5 3 2 5 5 3
15 14 14 16 17 19 20 20 20 20 21 22 24 24 23 22 20 17 9 3 3 2 6 8 5 9 14 2 1 6 12 9 5 2 3 3 3 5 8 3 3 4 3 5 3 8 6
17 15 15 16 18 19 20 21 21 21 21 23 24 25 25 24 20 10 6 4 7 6 11 14 15 18 17 13 4 7 13 7 5 4 4 5 5 7 4 3 3 2 2 5 3 6 4
17 16 16 18 19 20 21 22 23 22 22 23 24 26 26 24 16 5 8 4 7 13 4 9 10 14 16 16 10 16 15 11 4 5 5 6 5 7 5 4 4 3 5 4 4 4 3
19 19 17 18 19 21 22 22 23 23 23 23 24 25 25 24 11 15 2 2 9 6 4 6 5 6 13 10 5 18 18 14 3 9 8 5 5 5 5 5 7 3 8 6 7 6 3
20 20 22 20 21 22 24 24 24 23 22 21 23 24 24 24 22 16 7 8 8 2 4 3 3 6 15 14 4 8 21 15 8 6 6 7 3 4 4 7 8 9 1 5 4 5 5
19 21 23 23 23 23 23 24 24 25 24 23 23 24 25 27 22 8 3 4 2 5 6 3 7 6 5 4 3 5 8 11 5 5 1 6 3 6 8 3 8 5 5 9 6 3 2
20 21 22 24 23 22 23 24 23 25 24 23 23 24 27 24 20 13 8 2 4 3 6 4 2 4 5 5 3 4 6 6 6 4 2 3 5 3 4 4 4 5 5 4 3 2 5
21 21 23 24 23 21 23 25 24 25 25 24 25 24 25 10 11 8 7 4 4 3 6 5 3 2 7 6 3 3 6 4 2 4 3 5 5 6 4 6 7 4 6 6 5 4 4
22 22 22 23 23 22 22 23 23 23 24 26 25 23 9 13 7 14 10 3 6 5 4 7 7 1 2 2 2 4 6 7 9 9 8 5 5 4 4 4 8 4 2 4 8 4 3
22 21 20 20 23 19 21 22 22 22 23 25 24 18 14 6 6 18 4 5 2 3 5 5 3 4 2 0 2 6 7 5 7 13 5 6 1 1 2 6 7 5 7 4 3 4 3
22 20 19 21 19 17 19 20 20 21 22 21 17 4 9 15 9 1 3 5 3 5 9 5 1 4 3 3 1 4 6 4 6 6 9 6 3 3 1 2 8 2 1 6 5 4 5
21 19 18 17 15 16 18 19 20 21 22 20 8 2 3 9 3 2 1 2 3 4 8 4 3 6 5 2 4 3 7 8 11 13 10 6 5 3 0 4 2 4 5 5 5 4 1
20 17 15 14 14 15 16 17 18 20 22 23 13 3 1 5 2 2 5 4 2 4 4 5 4 5 3 3 3 6 6 6 18 9 11 9 1 3 5 6 3 6 3 5 5 4 6
18 16 15 14 13 15 15 16 16 17 18 17 6 3 2 3 5 3 4 4 4 5 3 3 4 6 5 3 6 6 4 4 6 5 12 8 4 7 7 7 4 5 3 4 5 4 5
18 14 13 13 13 14 15 15 14 15 15 11 6 1 2 3 3 3 2 2 2 3 2 5 1 5 2 4 4 5 4 4 3 7 4 4 5 3 2 4 3 4 5 7 6 5 5
17 13 14 14 13 14 15 15 14 15 13 6 5 4 4 4 7 3 1 1 1 3 2 4 3 3 3 4 4 4 8 4 4 2 3 3 2 3 2 1 3 3 2 6 4 4 2
16 16 14 14 14 14 14 13 13 12 12 4 4 3 3 2 2 1 3 0 2 10 8 15 3 6 7 10 7 16 24 29 15 5 2 4 7 4 2 2 3 3 6 4 3 3 7
18 16 15 13 13 13 13 12 12 11 11 9 6 5 2 3 1 3 3 7 11 7 5 14 19 5 7 17 32 22 11 16 14 8 3 7 5 3 4 2 2 6 4 4 4 3 3
16 17 17 16 15 12 13 14 11 10 10 9 7 3 2 3 3 9 5 3 9 13 6 12 21 23 25 18 4 6 4 3 4 5 2 2 6 4 5 4 4 1 4 6 6 7 5
18 15 15 16 17 14 13 12 13 11 10 9 7 4 4 4 4 7 4 7 3 3 5 6 19 14 8 3 3 4 3 4 5 3 4 5 6 5 3 5 6 8 4 5 5 3 12
17 13 13 13 13 13 14 13 11 10 10 10 5 7 7 6 15 14 3 3 4 3 3 8 10 7 2 1 4 4 6 3 5 9 6 4 3 6 3 3 6 6 5 7 5 7 12
13 13 11 12 12 12 12 11 10 8 9 11 6 8 12 9 23 30 28 19 16 10 3 8 10 3 4 1 3 0 4 3 6 4 7 7 7 4 4 4 4 13 7 8 7 5 14
13 13 13 13 13 11 10 9 8 6 8 9 11 6 10 14 21 28 28 30 28 20 10 3 5 9 3 3 1 3 1 0 2 4 2 2 6 7 7 7 4 31 5 15 4 3 4

GFSGBSN_850_spd_141.txt.gz
Wind_Speed
17 17 17 18 18 18 18 17 17 17 17 16 16 16 15 14 14 13 13 12 9 7 7 8 9 7 3 3 2 3 2 13 16 14 13 14 9 3 1 2 3 2 3 5 4 11 5
16 16 16 17 18 18 18 18 17 17 17 18 17 17 17 17 16 14 13 12 9 7 7 8 7 5 4 3 4 3 4 12 14 13 14 14 6 4 2 1 2 2 6 7 5 8 8
16 15 16 17 18 19 20 19 18 18 18 19 20 20 19 19 19 18 15 13 9 7 7 5 4 3 6 5 5 2 7 9 13 11 15 13 4 1 1 3 3 7 4 6 5 8 4
16 15 15 16 17 19 20 20 19 19 19 20 20 20 19 19 19 18 16 12 7 6 4 2 1 1 4 7 6 4 6 10 13 13 8 9 4 3 2 8 3 3 2 1 5 8 2
15 14 13 15 16 17 18 19 19 18 18 19 20 20 21 20 19 18 14 8 6 4 3 3 2 2 2 7 6 6 7 8 11 11 10 8 1 2 3 5 3 1 1 4 3 11 5
15 13 13 14 15 16 18 18 19 19 19 20 21 21 21 22 21 18 10 5 4 3 5 5 6 3 6 6 2 9 11 9 6 8 6 4 2 3 2 6 5 4 5 3 4 9 9
16 14 13 14 15 17 18 19 19 20 20 21 21 21 21 22 21 11 8 2 4 3 5 8 3 3 5 2 6 9 14 13 6 4 5 2 6 10 10 5 1 4 6 7 1 7 9
17 18 16 17 17 18 19 20 21 22 22 21 21 21 21 21 19 5 7 2 6 4 9 12 17 23 21 7 3 9 16 9 7 6 6 4 11 7 3 5 4 3 5 6 1 3 9
18 19 19 18 20 20 21 22 23 23 22 22 21 22 21 20 13 7 5 4 7 11 5 7 10 14 17 17 6 11 19 9 5 6 7 9 1 4 8 6 8 7 11 5 4 4 4
18 19 21 21 21 21 21 21 22 22 21 21 21 21 21 19 6 14 3 1 10 6 3 3 4 6 13 10 5 15 19 11 3 9 7 6 5 6 6 9 10 12 12 6 4 4 3
19 20 21 22 23 22 21 21 22 22 21 20 20 20 21 18 18 13 6 7 8 1 4 3 3 4 14 13 8 13 22 12 10 7 6 5 8 9 7 11 14 11 3 5 5 6 3
19 19 21 23 23 24 23 22 23 23 22 21 20 21 21 20 18 2 1 2 3 2 6 1 4 6 10 7 4 6 8 9 5 5 4 9 2 4 6 4 18 12 7 7 6 2 5
20 21 22 23 23 22 21 21 22 23 21 21 20 20 20 18 13 9 7 2 3 4 3 3 1 4 12 9 8 6 12 12 9 7 9 6 12 4 7 5 6 9 10 4 4 3 4
21 22 22 22 22 24 22 21 22 23 22 22 21 20 17 7 6 5 8 3 6 1 3 3 3 2 9 8 6 6 9 10 6 3 3 9 8 9 10 8 8 12 10 6 7 6 6
21 22 21 20 22 23 21 21 23 22 22 22 21 17 6 12 9 9 9 7 4 3 3 6 4 2 5 5 4 7 9 9 12 15 8 6 7 2 5 3 5 6 6 2 5 1 4
23 22 20 20 21 20 20 21 22 21 21 22 21 7 15 9 4 13 3 5 1 2 4 2 1 2 0 0 7 7 8 5 11 16 17 3 6 3 3 5 10 4 10 4 1 9 10
22 22 20 19 18 18 20 20 21 21 21 19 11 3 4 11 8 1 3 3 2 4 4 2 1 3 2 2 1 3 5 4 8 11 17 9 4 4 5 6 12 5 5 4 3 2 9
22 21 18 17 17 17 19 19 21 22 21 19 7 1 1 9 1 1 1 1 3 2 3 2 1 4 5 5 3 4 6 7 4 13 13 10 3 6 1 1 4 1 6 7 7 6 1
21 19 17 18 15 15 17 18 19 20 21 22 10 4 5 5 0 1 1 2 2 3 3 3 2 1 0 3 4 6 6 5 8 12 13 11 8 4 5 5 2 4 5 4 4 2 7
20 20 17 15 16 15 15 16 16 17 17 16 6 1 4 4 4 2 3 2 2 2 2 1 2 1 2 3 4 7 4 2 2 8 5 18 6 9 9 7 5 6 8 9 6 6 7
19 19 15 15 16 14 14 15 14 15 15 10 6 2 2 3 2 4 2 2 3 2 2 2 2 3 3 3 3 5 5 7 6 8 1 6 9 5 2 5 5 11 12 11 10 6 8
19 18 17 13 15 15 14 14 13 12 12 5 3 3 3 3 3 4 1 2 3 1 2 3 4 1 4 5 5 9 8 4 4 3 1 3 5 4 3 4 3 7 7 9 8 5 5
20 18 17 14 11 13 15 13 12 10 9 3 4 3 2 1 2 3 1 1 2 6 6 10 6 9 10 11 8 10 16 24 19 10 4 3 7 6 6 3 4 5 13 11 6 6 7
22 19 17 16 14 11 11 12 12 9 7 5 4 2 1 2 3 3 3 5 10 11 11 13 16 7 5 16 25 24 23 23 20 16 16 3 4 2 5 8 6 1 1 4 8 5 8
21 20 16 14 14 13 12 8 9 10 6 5 4 1 2 4 5 9 6 4 7 9 12 14 16 15 16 12 4 6 5 6 2 6 13 14 4 5 6 6 3 3 5 7 8 7 9
19 18 14 12 11 11 11 10 10 8 9 7 4 2 3 3 3 5 3 6 5 4 4 5 9 12 6 4 4 4 6 4 3 2 5 8 3 4 4 6 8 6 7 7 6 7 12
17 14 14 10 10 10 10 9 10 6 7 7 4 5 5 5 12 10 6 3 2 1 5 8 7 4 0 2 4 5 5 5 5 3 6 6 2 5 6 4 3 5 10 11 9 2 5
14 12 12 12 12 12 10 9 8 7 4 7 6 6 8 9 19 22 19 19 14 10 4 5 7 1 2 3 3 2 4 8 5 5 4 7 7 4 3 3 6 15 11 9 5 5 5
13 12 12 13 12 11 10 9 7 6 4 7 9 6 10 12 14 15 22 27 21 16 7 5 5 3 3 3 2 3 3 4 9 4 2 5 4 7 6 6 2 29 3 9 9 9 8

GFSGBSN_850_spd_144.txt.gz
Wind_Speed
15 15 15 16 16 17 16 15 15 15 15 16 16 16 16 15 15 15 14 13 10 9 8 8 8 6 2 4 2 4 8 15 17 15 10 12 11 7 3 1 2 3 4 4 6 9 7
14 13 14 15 16 16 17 16 15 15 15 16 16 16 16 16 16 15 14 14 11 8 8 8 7 4 3 7 5 5 7 14 13 12 10 10 7 5 4 2 3 2 4 7 4 7 4
13 12 12 13 15 16 16 17 16 16 16 17 17 18 18 18 18 18 16 14 10 7 7 6 4 3 6 2 6 4 9 12 12 10 10 9 3 6 1 3 3 7 7 6 5 5 3
13 12 11 12 14 15 16 17 17 17 17 17 17 18 19 20 20 19 17 12 7 6 4 3 1 2 3 7 6 5 11 11 14 9 7 7 4 4 6 4 6 6 6 4 5 7 4
13 12 11 12 13 14 15 16 17 18 18 18 18 18 19 20 20 18 14 8 5 6 4 3 1 2 5 8 6 9 10 9 13 10 6 8 4 6 6 11 8 7 5 3 6 8 2
14 13 13 14 15 15 16 17 18 19 19 20 20 19 19 20 20 15 12 6 4 5 5 4 5 4 6 9 9 12 11 12 12 13 8 9 9 10 10 10 9 4 7 5 0 8 9
15 14 14 15 16 18 18 19 19 20 20 21 20 20 19 19 20 9 9 5 4 3 6 9 1 2 9 8 8 13 14 12 13 16 12 16 11 15 14 14 8 5 4 4 6 4 6
17 17 17 17 17 19 20 20 20 20 20 20 20 20 18 17 17 4 8 2 2 3 10 13 17 16 10 6 10 14 17 15 14 14 15 9 16 16 3 4 10 10 9 5 2 1 7
16 17 17 18 18 19 20 20 19 19 19 20 20 20 17 15 9 10 6 5 4 8 8 6 11 16 15 15 12 17 23 19 15 15 15 16 5 11 9 13 13 13 13 5 5 2 8
16 16 17 18 19 21 21 20 19 19 19 18 19 19 17 14 5 11 1 5 7 5 5 9 7 8 14 14 14 12 24 18 7 13 12 13 12 7 16 18 15 15 12 9 7 7 6
17 18 19 20 22 24 25 24 22 20 19 17 17 18 16 13 12 6 7 8 7 1 5 4 7 6 12 18 14 14 22 17 13 11 8 10 11 15 15 15 17 16 12 8 9 11 7
19 19 20 21 21 21 20 20 18 18 20 19 17 19 16 15 11 7 3 1 1 6 6 5 7 10 14 21 6 15 19 16 10 10 12 16 5 8 16 11 16 17 10 7 6 7 9
19 21 21 21 20 19 18 17 18 18 18 19 17 16 16 12 4 7 5 3 6 6 3 5 4 10 17 13 11 14 17 18 12 12 13 14 15 13 9 12 8 13 16 10 10 9 9
21 21 21 19 19 20 19 19 20 20 19 18 17 15 11 5 4 4 7 7 9 2 4 2 2 6 15 12 15 12 16 17 19 14 9 11 14 19 13 17 10 19 20 11 10 9 8
20 20 20 19 19 19 19 20 21 21 20 20 17 8 6 10 7 8 11 11 3 4 3 4 6 8 13 14 7 15 15 16 15 16 14 8 13 16 9 12 12 16 16 16 14 2 8
20 20 19 19 19 18 19 20 20 19 19 19 14 1 5 7 5 8 9 14 1 2 5 4 8 2 8 16 14 12 17 14 16 16 19 7 8 14 12 8 8 10 18 10 9 13 11
21 21 19 19 19 17 18 19 20 20 19 16 4 4 2 5 6 8 8 8 4 6 4 3 2 4 3 4 10 15 11 11 9 12 19 15 10 11 9 14 15 9 9 10 10 5 11
19 20 20 18 19 15 17 18 19 20 19 15 3 3 2 3 6 3 6 2 1 7 5 4 5 6 7 4 7 8 14 11 2 8 15 19 11 11 19 5 9 13 19 17 11 14 11
20 19 18 17 19 15 15 16 17 18 20 18 7 3 3 1 5 5 3 5 5 6 7 6 9 5 2 6 4 7 8 3 4 8 5 14 11 10 9 8 7 15 15 11 13 12 8
20 20 19 16 19 19 15 15 15 15 15 14 5 3 3 3 2 6 3 5 6 5 6 5 6 6 10 13 12 8 5 1 4 8 5 5 18 16 11 13 15 17 15 15 13 10 11
19 19 19 17 15 19 17 14 14 13 12 8 3 2 3 1 4 4 5 2 5 6 6 5 5 8 5 8 11 15 16 10 14 3 6 13 16 12 18 9 8 16 16 14 16 15 12
20 19 18 17 13 14 16 15 10 10 8 4 5 5 3 8 6 7 5 8 9 6 6 10 8 8 7 10 10 12 9 10 6 2 6 10 13 15 14 12 13 12 10 13 15 15 10
20 20 19 18 15 13 12 14 14 7 5 2 4 4 5 2 5 5 5 5 4 1 7 11 11 9 12 12 11 13 14 14 13 13 9 7 12 9 15 12 11 13 14 14 15 13 13
20 21 22 18 15 13 12 11 10 9 4 2 3 3 6 7 5 6 4 5 7 9 12 12 11 11 9 11 20 22 25 24 23 19 16 8 8 11 8 9 15 4 2 9 14 14 13
19 20 20 16 12 10 10 8 6 8 5 3 2 1 4 7 7 9 12 10 10 10 12 14 15 16 12 13 10 13 13 17 17 17 15 17 8 8 7 14 7 8 6 8 10 11 11
17 19 16 14 9 8 8 7 8 9 6 4 5 4 2 5 1 7 7 6 8 8 9 10 8 9 10 8 9 13 11 12 12 7 10 13 12 5 10 17 19 9 8 7 6 10 10
14 15 13 13 12 11 9 8 7 8 4 4 4 5 5 8 11 10 8 6 4 4 6 7 3 5 8 9 10 12 13 12 16 16 10 8 8 14 11 12 8 5 11 12 11 3 8
13 12 11 11 13 11 9 8 7 5 6 3 4 7 7 8 19 19 18 17 11 10 7 6 8 6 7 8 7 7 9 11 14 12 10 10 9 9 12 14 9 15 14 12 4 6 7
11 13 11 11 12 12 8 7 8 5 6 4 5 6 9 13 16 17 18 16 18 15 12 7 9 4 4 4 3 3 4 6 11 11 3 9 6 8 9 8 5 24 8 18 5 11 9

GFSGBSN_850_spd_147.txt.gz
Wind_Speed
11 11 12 13 14 14 14 14 13 13 13 13 14 14 14 14 15 15 15 14 11 10 8 7 7 6 3 6 5 3 8 15 17 15 12 13 14 11 12 2 6 6 6 2 6 6 6
11 11 11 12 13 13 14 14 14 14 14 14 14 15 16 16 17 17 16 14 11 8 7 7 6 5 5 13 2 4 9 14 14 15 13 13 12 9 7 6 2 2 5 4 4 7 5
12 11 11 12 12 13 14 14 14 15 15 15 15 16 17 18 19 20 17 13 9 6 5 5 4 4 9 4 5 7 10 12 13 14 13 12 9 9 4 7 3 7 9 9 6 5 4
13 12 12 13 14 15 15 15 16 16 17 17 17 17 18 19 19 20 16 12 7 5 4 2 1 3 6 7 7 9 11 12 13 12 12 12 11 12 9 2 8 11 10 7 14 8 5
14 12 12 13 14 15 16 17 17 18 18 19 19 19 19 19 19 19 14 11 6 4 2 1 2 5 8 8 11 10 12 13 14 12 11 9 11 16 13 13 13 12 3 7 8 9 4
14 14 14 14 15 16 17 18 19 19 20 20 20 19 18 18 18 17 12 9 6 6 4 4 6 8 11 12 13 13 12 11 16 14 12 14 13 14 13 14 5 5 11 9 12 8 5
14 14 14 14 15 17 18 18 19 19 19 19 20 19 16 16 16 14 9 7 5 4 12 15 3 7 6 10 12 14 14 14 16 16 16 19 14 16 19 16 13 6 8 5 12 7 3
16 17 17 17 17 18 19 20 19 19 19 19 19 18 16 14 13 6 7 5 3 6 11 17 20 15 8 12 12 15 16 16 16 15 19 13 18 18 15 11 13 7 11 14 13 3 6
17 17 18 18 19 20 20 20 20 20 20 20 20 18 16 11 9 4 8 5 3 9 9 15 20 22 22 13 16 19 22 21 15 17 18 19 10 17 15 10 12 15 15 7 3 6 11
16 17 18 19 20 21 22 22 20 19 18 19 19 19 16 9 4 7 3 4 5 7 6 10 12 12 23 19 19 16 21 22 11 17 18 14 19 8 14 14 17 16 14 9 7 7 8
17 18 19 20 20 20 21 22 22 22 21 18 18 16 14 12 8 3 4 5 6 4 6 6 10 8 17 24 2 22 19 23 17 13 11 15 15 16 16 17 18 17 12 12 10 12 12
18 19 20 20 19 19 19 18 17 18 18 17 16 18 12 10 7 7 7 4 3 7 6 8 9 11 17 25 13 19 18 23 17 15 15 17 8 13 17 17 13 17 16 10 12 13 14
19 20 20 20 19 18 17 17 16 16 17 16 15 16 12 7 2 5 5 5 7 9 5 6 8 15 17 18 18 11 19 19 16 13 15 15 20 12 15 17 18 16 17 12 13 12 13
21 21 20 19 18 17 17 19 19 19 19 18 14 12 9 4 5 4 5 8 10 3 7 5 5 7 16 18 19 16 18 18 20 18 13 12 15 21 16 17 16 15 21 14 18 10 9
19 20 19 19 19 18 18 21 21 20 20 20 13 5 2 3 6 6 11 10 8 8 5 4 7 12 15 18 12 16 19 19 19 18 18 10 11 19 18 16 19 15 18 23 23 7 9
19 21 21 21 19 19 19 21 22 19 18 20 12 4 5 4 5 8 9 16 11 3 4 9 13 7 14 18 17 17 19 16 17 19 15 16 13 10 15 18 21 21 13 18 16 20 12
18 19 20 21 20 20 18 20 22 21 18 15 4 7 4 2 4 12 10 12 9 8 8 10 14 12 11 16 17 19 16 16 13 17 13 16 12 12 16 16 16 12 14 14 20 12 11
20 20 20 20 20 19 18 18 19 21 19 11 6 4 3 4 11 14 11 9 3 10 10 13 8 13 12 11 10 12 17 16 12 13 13 17 10 13 19 16 19 19 18 15 10 13 10
19 20 20 20 21 20 18 17 17 17 20 20 9 11 3 7 6 8 10 8 7 11 10 13 14 13 13 12 9 16 17 2 3 6 3 11 13 14 18 17 14 15 15 19 19 15 14
19 18 19 19 20 20 19 18 15 13 13 14 8 4 9 11 15 11 13 8 11 9 12 8 10 13 11 12 14 11 12 5 1 9 16 12 16 16 14 15 17 22 22 21 18 11 13
21 20 18 18 18 19 19 17 16 11 9 9 6 3 6 5 1 7 9 12 9 12 12 8 9 12 12 14 16 19 19 17 10 5 11 12 18 17 22 8 20 17 19 23 22 17 13
22 21 19 18 18 17 17 17 14 10 5 2 7 6 5 16 14 11 11 13 15 14 12 11 13 13 9 11 13 15 12 19 11 9 9 15 16 19 23 24 15 18 18 20 18 14 17
21 21 21 19 18 17 15 13 12 8 3 4 6 9 8 10 11 11 11 12 9 7 10 13 15 14 12 10 12 18 21 19 11 11 7 14 13 16 21 21 17 17 17 16 13 13 14
20 21 21 20 18 14 13 11 9 8 2 4 7 8 11 10 11 8 12 5 11 11 12 15 8 10 13 14 16 20 24 25 26 21 21 14 13 12 16 15 20 15 18 14 13 11 12
17 16 18 18 15 10 9 9 7 7 7 4 6 5 7 8 14 10 12 14 16 17 16 18 20 17 16 17 12 16 15 20 24 25 22 19 11 9 13 9 13 19 7 14 8 10 11
14 13 15 14 14 12 11 9 7 8 7 3 7 5 7 9 2 7 12 11 10 10 11 15 13 12 11 9 11 17 15 18 19 21 22 19 15 9 9 15 19 24 16 11 4 10 12
13 12 13 12 12 13 12 10 8 6 6 4 6 5 7 14 20 12 9 8 10 8 8 12 7 9 15 10 12 13 14 18 16 20 15 14 14 16 17 15 23 15 11 7 9 2 11
12 12 12 12 11 13 13 8 8 7 5 4 6 5 8 12 21 20 19 18 14 11 9 9 9 15 10 11 11 10 10 14 16 17 19 18 14 14 18 21 17 20 23 11 9 9 7
11 10 10 10 11 11 11 9 7 7 5 6 4 6 8 12 18 20 22 21 18 18 19 15 14 10 3 4 3 5 8 10 11 15 11 13 19 15 13 15 10 10 16 10 7 9 7

GFSGBSN_850_spd_150.txt.gz
Wind_Speed
12 11 12 12 13 13 14 14 14 14 14 14 14 14 15 16 16 17 17 15 12 10 8 7 7 7 6 7 15 4 5 15 17 17 16 14 15 15 16 8 3 14 17 1 6 5 8
12 11 11 12 12 13 13 14 14 14 15 15 15 15 16 17 17 17 17 14 12 9 7 6 6 6 6 12 3 6 4 14 15 17 14 15 16 14 17 9 2 11 25 3 5 7 2
13 12 12 12 13 14 15 15 15 16 16 17 17 17 17 18 19 19 18 13 9 5 5 5 5 6 10 12 2 4 10 12 14 16 15 14 16 15 14 15 11 15 9 24 18 4 6
14 14 14 14 14 15 16 17 18 18 19 19 19 19 19 19 19 19 19 13 7 4 3 3 3 5 9 12 8 10 10 11 13 14 15 12 14 14 19 18 6 14 11 8 17 24 10
16 16 16 16 16 17 18 18 19 19 20 20 20 20 19 18 18 18 17 12 7 4 3 3 3 4 14 13 14 13 13 14 14 14 13 11 10 17 20 14 15 10 1 10 3 23 9
16 16 16 16 17 17 18 19 19 19 20 20 20 19 19 17 17 16 13 11 7 7 5 7 10 9 17 13 13 15 13 14 14 14 13 13 12 14 15 14 12 2 11 6 18 8 9
16 17 17 18 18 18 19 20 20 20 20 20 20 19 18 16 14 14 8 7 6 3 13 16 9 13 4 13 13 17 15 15 15 17 14 18 13 15 19 17 20 5 9 10 12 13 10
17 18 18 19 20 20 21 21 21 20 20 20 20 19 17 15 12 8 5 3 6 8 12 20 24 22 13 12 12 15 16 15 16 15 17 15 16 18 18 18 18 14 11 11 7 9 11
18 18 19 20 21 21 22 21 21 20 20 20 20 19 16 12 8 2 6 10 7 9 10 19 27 27 21 14 17 19 20 21 17 17 16 18 17 19 17 16 16 12 11 3 7 4 9
18 19 20 21 21 21 22 23 23 22 21 20 18 18 16 9 4 6 5 3 6 8 6 13 15 20 25 20 18 20 23 21 14 16 18 18 19 15 13 19 12 14 14 11 4 7 9
19 20 21 21 21 21 21 21 22 23 23 22 21 16 12 12 9 4 5 8 8 6 5 9 11 4 17 26 2 23 24 22 19 16 14 16 16 14 16 15 12 16 18 14 15 13 11
20 21 22 21 21 20 20 20 20 20 20 20 18 19 11 8 9 6 9 7 6 6 9 9 10 9 15 21 24 15 20 19 20 20 15 17 17 14 18 16 15 14 18 17 14 9 12
20 21 22 22 20 19 19 19 20 20 20 18 15 17 14 10 4 4 6 5 6 8 2 6 9 13 14 15 19 15 17 17 16 13 16 17 17 17 10 15 15 16 13 11 12 12 15
21 22 22 22 21 21 21 21 21 21 21 21 16 14 10 6 5 7 4 7 8 12 9 6 2 9 12 15 18 16 13 15 21 21 14 13 14 21 17 17 17 16 18 13 15 6 5
20 21 22 22 22 21 22 22 23 23 23 25 16 6 5 3 2 6 10 10 7 11 10 12 6 9 11 15 13 21 17 17 18 19 19 16 17 9 18 17 18 17 15 20 22 7 4
20 21 22 22 22 23 23 23 23 23 22 22 18 7 13 6 7 7 9 14 18 17 8 6 12 14 13 16 18 18 19 18 20 20 19 17 17 15 16 15 19 19 15 11 13 19 14
21 21 21 21 22 22 22 23 23 24 21 15 11 7 10 4 6 11 10 13 16 18 8 9 14 17 18 16 13 18 19 17 18 17 18 18 13 18 14 11 17 13 17 17 16 13 16
23 22 22 21 22 22 21 21 21 24 23 13 7 5 7 7 9 12 11 19 3 13 6 7 11 15 17 16 17 16 16 16 14 17 16 16 10 13 20 15 17 18 17 17 12 14 12
23 22 21 21 22 21 21 20 19 18 21 23 10 16 7 8 8 9 15 16 5 13 14 15 11 13 14 16 15 15 18 17 7 6 1 8 13 13 17 17 17 16 20 18 19 18 12
25 22 19 20 20 22 22 20 17 14 15 16 8 5 12 12 16 15 14 14 13 12 8 16 14 13 14 14 13 15 16 20 3 8 12 6 10 15 14 16 3 16 20 22 19 14 13
25 24 20 20 21 21 21 19 17 13 10 12 7 6 12 8 8 12 13 14 14 16 8 8 9 11 15 14 13 15 17 20 13 8 8 6 13 18 20 23 7 21 12 15 21 21 17
21 22 21 20 21 21 20 17 15 12 7 6 10 11 18 20 20 15 13 14 17 16 16 15 9 13 12 10 13 15 11 14 17 17 13 14 16 18 22 24 20 13 16 27 22 24 22
20 21 20 20 19 19 17 14 13 9 4 8 12 14 14 12 15 14 12 14 15 13 14 15 12 11 12 11 17 16 18 18 18 18 18 10 13 15 21 22 22 21 15 20 21 23 21
18 19 18 19 19 18 14 12 10 7 4 7 10 13 13 11 13 14 16 14 14 12 12 15 14 8 12 18 18 19 22 21 22 20 19 9 12 12 14 17 24 15 23 15 32 9 11
18 17 16 16 16 16 15 12 10 9 8 7 8 10 11 9 16 16 15 11 16 17 15 18 22 20 18 17 12 13 13 18 20 22 22 18 13 13 14 16 18 10 9 11 25 15 15
17 16 14 15 14 14 17 13 10 8 8 6 7 8 9 12 2 18 13 14 11 11 14 18 17 16 10 10 11 16 14 16 13 21 22 23 20 14 12 18 23 9 15 18 26 11 8
15 14 13 14 13 12 14 14 11 8 7 7 7 9 9 17 23 14 12 12 15 14 10 14 10 10 12 9 12 14 16 19 18 19 10 17 17 19 16 16 15 9 17 30 4 7 18
14 13 12 12 11 12 12 13 11 10 8 6 6 9 8 16 27 21 18 19 17 15 9 12 11 7 8 11 11 12 12 14 15 18 12 16 16 17 14 17 20 10 14 7 14 11 16
14 13 12 12 11 11 11 12 13 10 9 7 6 4 8 11 23 24 24 24 22 17 19 18 17 14 3 4 3 4 7 7 13 13 12 17 12 10 12 11 14 13 5 29 44 11 12